Weather History for Wolf Creek Pass, CO

Change the Weather History Date:

Friday, March 22, 2013

  Actual Average (KALS) Record (KALS)
Temperature  
Mean Temperature 19 °F 35 °F  
Max Temperature 26 °F 52 °F 70 °F (2004)
Min Temperature 12 °F 19 °F -4 °F (1952)
Degree Days  
Heating Degree Days 46 30  
Month to date heating degree days 721  
Since 1 July heating degree days 7050  
Cooling Degree Days 0 0  
Month to date cooling degree days 0  
Year to date cooling degree days 0  
Moisture  
Dew Point -2 °F    
Average Humidity 43    
Maximum Humidity 86    
Minimum Humidity 22    
Precipitation  
Precipitation 0.00 in 0.02 in 0.57 in (1984)
Month to date precipitation 0.36  
Year to date precipitation 0.88  
Snow  
Snow 0.00 in 0.20 in 4.90 in (1984)
Month to date snowfall 3.5  
Since 1 July snowfall 21.6  
Snow Depth -    
Sea Level Pressure  
Sea Level Pressure 29.77 in    
Wind  
Wind Speed 23 mph (SW)    
Max Wind Speed 46 mph    
Max Gust Speed 67 mph    
Visibility 8 miles    
Events Snow    
T = Trace of Precipitation, MM = Missing Value Source: NWS Daily Summary

Daily Weather History Graph

Daily Weather History Graph

Search for Another Location

Airport:

Trip Planner

Search our weather history database for the weather conditions in past years. The results will help you decide how hot, cold, wet, or windy it might be!

Date:

Astronomy

Mar. 22, 2013 Rise Set
Actual Time 7:07 AM MDT 7:21 PM MDT
Civil Twilight 6:41 AM MDT 7:47 PM MDT
Nautical Twilight 6:10 AM MDT 8:17 PM MDT
Astronomical Twilight 5:39 AM MDT 8:48 PM MDT
Moon 2:56 PM MDT (3/22) 4:04 AM MDT (3/22)
Length of Visible Light 13h 06m
Length of Day
12h 13m
Waxing Gibbous, 78% of the Moon is Illuminated
Mar 22
Waxing Gibbous
Mar 27
Full
Apr 2
Last Quarter
Apr 10
New
Apr 18
First Quarter

Hourly Weather History & Observations

Time (MDT) Temp. Windchill Dew Point Humidity Pressure Visibility Wind Dir Wind Speed Gust Speed Precip Events Conditions
12:15 AM 17.6 °F -0.3 °F -5.8 °F 35% 29.89 in 10.0 mi SW 24.2 mph 31.1 mph N/A   Clear
12:36 AM 17.6 °F -0.3 °F -4.0 °F 38% 29.89 in 10.0 mi SW 24.2 mph 27.6 mph N/A   Clear
12:56 AM 17.6 °F 1.3 °F -4.0 °F 38% 29.88 in 10.0 mi SW 19.6 mph 25.3 mph N/A   Clear
1:16 AM 17.6 °F 1.3 °F -4.0 °F 38% 29.87 in 10.0 mi SW 19.6 mph 26.5 mph N/A   Clear
1:36 AM 17.6 °F 1.3 °F -2.2 °F 42% 29.87 in 10.0 mi SW 19.6 mph 24.2 mph N/A   Clear
1:56 AM 17.6 °F 3.7 °F -4.0 °F 38% 29.86 in 10.0 mi SW 13.8 mph - N/A   Clear
2:16 AM 17.6 °F 3.2 °F -4.0 °F 38% 29.86 in 10.0 mi SW 15.0 mph - N/A   Clear
2:36 AM 15.8 °F 2.1 °F -4.0 °F 41% 29.85 in 10.0 mi SW 12.7 mph - N/A   Clear
2:56 AM 17.6 °F 5.0 °F -4.0 °F 38% 29.85 in 10.0 mi SW 11.5 mph - N/A   Clear
3:16 AM 17.6 °F 3.2 °F -4.0 °F 38% 29.84 in 10.0 mi SW 15.0 mph - N/A   Clear
3:36 AM 15.8 °F -1.1 °F -4.0 °F 41% 29.84 in 10.0 mi SW 19.6 mph - N/A   Clear
3:56 AM 15.8 °F -1.9 °F -0.4 °F 49% 29.83 in 10.0 mi SW 21.9 mph 27.6 mph N/A   Clear
4:16 AM 14.0 °F -3.9 °F -0.4 °F 53% 29.82 in 10.0 mi SW 20.7 mph 29.9 mph N/A   Clear
4:36 AM 14.0 °F -3.4 °F -2.2 °F 49% 29.82 in 10.0 mi SW 19.6 mph 27.6 mph N/A   Clear
4:56 AM 14.0 °F -3.4 °F -0.4 °F 53% 29.81 in 10.0 mi SW 19.6 mph 29.9 mph N/A   Clear
5:16 AM 14.0 °F -3.9 °F -0.4 °F 53% 29.81 in 10.0 mi SW 20.7 mph 27.6 mph N/A   Clear
5:36 AM 14.0 °F -4.3 °F -0.4 °F 53% 29.81 in 10.0 mi SW 21.9 mph 28.8 mph N/A   Clear
5:56 AM 12.2 °F -5.8 °F -0.4 °F 57% 29.81 in 10.0 mi SW 19.6 mph 25.3 mph N/A   Clear
6:16 AM 12.2 °F -4.8 °F -0.4 °F 57% 29.80 in 10.0 mi SW 17.3 mph 27.6 mph N/A   Scattered Clouds
6:36 AM 12.2 °F -6.3 °F -0.4 °F 57% 29.81 in 10.0 mi SW 20.7 mph 24.2 mph N/A   Mostly Cloudy
6:56 AM 14.0 °F -3.4 °F -0.4 °F 53% 29.81 in 10.0 mi SW 19.6 mph 23.0 mph N/A   Overcast
7:16 AM 12.2 °F -4.3 °F -0.4 °F 57% 29.81 in 10.0 mi SW 16.1 mph 21.9 mph N/A   Overcast
7:36 AM 12.2 °F -5.8 °F -0.4 °F 57% 29.81 in 10.0 mi SW 19.6 mph 25.3 mph N/A   Overcast
7:56 AM 12.2 °F -6.3 °F -0.4 °F 57% 29.81 in 10.0 mi SW 20.7 mph 24.2 mph N/A   Overcast
8:16 AM 12.2 °F -5.8 °F -2.2 °F 53% 29.81 in 10.0 mi SW 19.6 mph 23.0 mph N/A   Overcast
8:36 AM 14.0 °F -3.4 °F -4.0 °F 45% 29.81 in 10.0 mi SW 19.6 mph 24.2 mph N/A   Scattered Clouds
8:56 AM 14.0 °F -2.0 °F -4.0 °F 45% 29.83 in 10.0 mi SSW 16.1 mph 24.2 mph N/A   Mostly Cloudy
9:16 AM 14.0 °F -1.4 °F -4.0 °F 45% 29.83 in 10.0 mi SW 15.0 mph 21.9 mph N/A   Overcast
9:36 AM 14.0 °F -2.5 °F -4.0 °F 45% 29.82 in 10.0 mi SSW 17.3 mph 21.9 mph N/A   Overcast
9:56 AM 15.8 °F 0.3 °F -4.0 °F 41% 29.82 in 10.0 mi SSW 16.1 mph 23.0 mph N/A   Overcast
10:16 AM 17.6 °F 0.9 °F -2.2 °F 42% 29.82 in 10.0 mi SW 20.7 mph 27.6 mph N/A   Overcast
10:36 AM 17.6 °F 1.7 °F -0.4 °F 45% 29.83 in 10.0 mi SW 18.4 mph 27.6 mph N/A   Overcast
10:56 AM 19.4 °F 5.5 °F -0.4 °F 42% 29.82 in 10.0 mi SSW 15.0 mph 26.5 mph N/A   Overcast
11:16 AM 19.4 °F 4.1 °F 1.4 °F 46% 29.81 in 10.0 mi SW 18.4 mph 29.9 mph N/A   Mostly Cloudy
11:36 AM 21.2 °F 5.2 °F 3.2 °F 46% 29.81 in 10.0 mi SW 21.9 mph 32.2 mph N/A   Scattered Clouds
11:56 AM 19.4 °F 4.1 °F 5.0 °F 54% 29.80 in 10.0 mi SW 18.4 mph 33.4 mph N/A   Mostly Cloudy
12:16 PM 21.2 °F 5.6 °F 5.0 °F 50% 29.80 in 10.0 mi SW 20.7 mph 33.4 mph N/A   Scattered Clouds
12:36 PM 19.4 °F 2.1 °F 6.8 °F 58% 29.79 in 10.0 mi SSW 24.2 mph 36.8 mph N/A   Mostly Cloudy
12:56 PM 19.4 °F 1.4 °F 10.4 °F 68% 29.78 in 10.0 mi SSW 26.5 mph 35.7 mph N/A   Mostly Cloudy
1:16 PM 17.6 °F -0.3 °F 12.2 °F 79% 29.77 in 0.5 mi SSW 24.2 mph 40.3 mph N/A Snow Light Snow
1:36 PM 17.6 °F -0.3 °F 14.0 °F 86% 29.77 in 0.5 mi SW 24.2 mph 39.1 mph N/A Snow Light Snow
1:56 PM 19.4 °F 0.5 °F 10.4 °F 68% 29.75 in 1.8 mi SSW 29.9 mph 47.2 mph N/A Snow Light Snow
2:16 PM 21.2 °F 3.3 °F 10.4 °F 63% 29.75 in 3.0 mi SW 28.8 mph 50.6 mph N/A   Haze
2:36 PM 21.2 °F 4.9 °F 8.6 °F 58% 29.75 in 5.0 mi SW 23.0 mph 46.0 mph N/A   Haze
2:56 PM 21.2 °F 3.5 °F 6.8 °F 54% 29.73 in 4.0 mi SW 27.6 mph 55.2 mph N/A   Haze
3:16 PM 21.2 °F 3.5 °F 5.0 °F 50% 29.72 in 4.0 mi SSW 27.6 mph 52.9 mph N/A   Haze
3:35 PM 23.0 °F 2.2 °F 3.2 °F 43% 29.70 in 2.5 mi SW 46.0 mph 61.0 mph N/A   Haze
3:56 PM 23.0 °F 6.0 °F 5.0 °F 46% 29.70 in 5.0 mi WSW 27.6 mph 55.2 mph N/A   Haze
4:15 PM 24.8 °F 6.4 °F 5.0 °F 43% 29.70 in 5.0 mi SW 36.8 mph 54.1 mph N/A   Haze
4:36 PM 24.8 °F 7.3 °F 1.4 °F 36% 29.69 in 4.0 mi SSW 32.2 mph 52.9 mph N/A   Haze
4:56 PM 24.8 °F 6.4 °F -0.4 °F 34% 29.68 in 5.0 mi SW 36.8 mph 56.4 mph N/A   Haze
5:16 PM 26.6 °F 9.8 °F -4.0 °F 26% 29.68 in 7.0 mi SW 32.2 mph 57.5 mph N/A   Mostly Cloudy
5:36 PM 26.6 °F 10.8 °F -7.6 °F 22% 29.68 in 2.0 mi SW 27.6 mph 66.7 mph N/A   Haze
5:56 PM 24.8 °F 5.3 °F -7.6 °F 24% 29.67 in 5.0 mi SW 42.6 mph 57.5 mph N/A   Haze
6:16 PM 24.8 °F 5.3 °F -5.8 °F 26% 29.68 in 7.0 mi SW 42.6 mph 62.1 mph N/A   Scattered Clouds
6:35 PM 24.8 °F 5.5 °F -7.6 °F 24% 29.68 in 5.0 mi SW 41.4 mph 57.5 mph N/A   Haze
6:56 PM 23.0 °F 2.6 °F -9.4 °F 24% 29.68 in 7.0 mi WSW 43.7 mph 57.5 mph N/A   Clear
7:16 PM 23.0 °F 3.7 °F -9.4 °F 24% 29.68 in 7.0 mi SW 38.0 mph 52.9 mph N/A   Clear
7:36 PM 23.0 °F 3.0 °F -7.6 °F 26% 29.68 in 7.0 mi SW 41.4 mph 61.0 mph N/A   Clear
7:56 PM 21.2 °F 1.2 °F -7.6 °F 28% 29.70 in 10.0 mi SW 38.0 mph 52.9 mph N/A   Clear
8:16 PM 21.2 °F 2.4 °F -5.8 °F 30% 29.69 in 7.0 mi SW 32.2 mph 58.7 mph N/A   Clear
8:36 PM 21.2 °F 1.9 °F -5.8 °F 30% 29.70 in 10.0 mi SW 34.5 mph 43.7 mph N/A   Clear
8:56 PM 21.2 °F 2.2 °F -7.6 °F 28% 29.70 in 10.0 mi SW 33.4 mph 42.6 mph N/A   Clear
9:16 PM 19.4 °F 1.1 °F -7.6 °F 30% 29.70 in 10.0 mi SW 27.6 mph 40.3 mph N/A   Clear
9:36 PM 19.4 °F -0.3 °F -7.6 °F 30% 29.70 in 10.0 mi SW 33.4 mph 47.2 mph N/A   Clear
9:56 PM 19.4 °F 2.1 °F -7.6 °F 30% 29.71 in 10.0 mi WSW 24.2 mph 51.8 mph N/A   Clear
10:16 PM 19.4 °F 2.8 °F -9.4 °F 28% 29.72 in 10.0 mi SW 21.9 mph 35.7 mph N/A   Clear
10:36 PM 19.4 °F 1.4 °F -9.4 °F 28% 29.72 in 10.0 mi SW 26.5 mph 35.7 mph N/A   Clear
10:56 PM 19.4 °F 3.2 °F -11.2 °F 25% 29.73 in 10.0 mi SW 20.7 mph 36.8 mph N/A   Clear
11:16 PM 19.4 °F 3.6 °F -11.2 °F 25% 29.73 in 10.0 mi WSW 19.6 mph 35.7 mph N/A   Clear
11:36 PM 17.6 °F 0.9 °F -11.2 °F 27% 29.72 in 10.0 mi SW 20.7 mph 33.4 mph N/A   Clear
11:56 PM 17.6 °F 0.9 °F -9.4 °F 30% 29.71 in 10.0 mi SW 20.7 mph 34.5 mph N/A   Clear